TimeEDT,TemperatureF,Dew PointF,Humidity,Sea Level PressureIn,VisibilityMPH,Wind Direction,Wind SpeedMPH,Gust SpeedMPH,PrecipitationIn,Events,Conditions,WindDirDegrees,DateUTC
12:53 AM,59.0,45.0,60,29.75,10.0,WNW,16.1,25.3,N/A,,Overcast,300,2012-10-29 04:53:00
1:14 AM,57.2,44.6,63,29.75,10.0,WNW,12.7,23.0,N/A,,Overcast,300,2012-10-29 05:14:00
1:53 AM,57.9,43.0,58,29.75,10.0,WNW,10.4,23.0,N/A,,Overcast,300,2012-10-29 05:53:00
2:53 AM,55.0,42.1,62,29.76,10.0,WNW,17.3,23.0,N/A,,Partly Cloudy,300,2012-10-29 06:53:00
3:53 AM,54.0,39.9,59,29.75,10.0,WNW,15.0,20.7,N/A,,Clear,300,2012-10-29 07:53:00
4:53 AM,52.0,39.9,63,29.76,10.0,NW,12.7,24.2,N/A,,Clear,310,2012-10-29 08:53:00
5:53 AM,51.1,39.0,63,29.76,10.0,WNW,13.8,26.5,N/A,,Clear,300,2012-10-29 09:53:00
6:53 AM,50.0,39.0,66,29.78,10.0,WNW,11.5,24.2,N/A,,Clear,300,2012-10-29 10:53:00
7:53 AM,48.9,39.0,69,29.80,10.0,WNW,13.8,20.7,N/A,,Clear,300,2012-10-29 11:53:00
8:53 AM,51.1,37.9,61,29.81,10.0,NW,18.4,25.3,N/A,,Clear,310,2012-10-29 12:53:00
9:53 AM,54.0,39.0,57,29.82,10.0,NW,15.0,23.0,N/A,,Clear,310,2012-10-29 13:53:00
10:53 AM,55.9,37.9,51,29.81,10.0,WNW,11.5,23.0,N/A,,Clear,300,2012-10-29 14:53:00
11:53 AM,59.0,37.9,46,29.79,10.0,West,16.1,21.9,N/A,,Clear,280,2012-10-29 15:53:00
12:53 PM,62.1,37.9,41,29.77,10.0,WNW,15.0,24.2,N/A,,Clear,300,2012-10-29 16:53:00
1:53 PM,63.0,37.0,38,29.73,10.0,West,16.1,23.0,N/A,,Clear,280,2012-10-29 17:53:00
2:53 PM,64.9,35.1,33,29.71,10.0,WNW,15.0,25.3,N/A,,Clear,290,2012-10-29 18:53:00
3:53 PM,64.9,34.0,32,29.70,10.0,West,17.3,24.2,N/A,,Clear,280,2012-10-29 19:53:00
4:53 PM,64.9,34.0,32,29.69,10.0,WNW,16.1,23.0,N/A,,Clear,290,2012-10-29 20:53:00
5:53 PM,63.0,32.0,31,29.69,10.0,West,13.8,24.2,N/A,,Clear,280,2012-10-29 21:53:00
6:53 PM,61.0,32.0,34,29.71,10.0,West,9.2,-,N/A,,Clear,270,2012-10-29 22:53:00
7:53 PM,60.1,33.1,36,29.73,10.0,West,8.1,-,N/A,,Clear,280,2012-10-29 23:53:00
8:53 PM,59.0,32.0,36,29.75,10.0,West,11.5,-,N/A,,Clear,280,2012-10-30 00:53:00
9:53 PM,57.0,30.9,37,29.77,10.0,WNW,12.7,19.6,N/A,,Clear,290,2012-10-30 01:53:00
10:53 PM,55.9,28.9,36,29.79,10.0,WNW,10.4,-,N/A,,Clear,290,2012-10-30 02:53:00
11:53 PM,54.0,28.9,38,29.80,10.0,WNW,10.4,18.4,N/A,,Clear,290,2012-10-30 03:53:00